This is the latest recevied weather packets stored in our database for station/object VK2BLR. If no packets are shown the sender has not sent any weather packets the latest 10 day(s).
| Time | Temp. | Humidity | Pressure | Rain* | Wind** | Luminosity | Snow |
|---|---|---|---|---|---|---|---|
| 1778208813 | 14.44° C | 60% | 1019.9 hPa | 0 mm | - | - | - |
| 1778207912 | 14.44° C | 62% | 1019.8 hPa | 0 mm | - | - | - |
| 1778207014 | 14.44° C | 62% | 1020.1 hPa | 0 mm | - | - | - |
| 1778206113 | 13.33° C | 65% | 1020.3 hPa | 0 mm | - | - | - |
| 1778205212 | 12.78° C | 66% | 1020.6 hPa | 0 mm | - | - | - |
| 1778204312 | 12.22° C | 70% | 1020.7 hPa | 0 mm | - | - | - |
| 1778203414 | 12.22° C | 68% | 1020.9 hPa | 0 mm | - | - | - |
| 1778202513 | 12.22° C | 70% | 1021 hPa | 0 mm | - | - | - |
| 1778201612 | 11.11° C | 71% | 1021.2 hPa | 0 mm | - | - | - |
| 1778200714 | 10.56° C | 70% | 1021.1 hPa | 0 mm | - | - | - |
| 1778199813 | 10° C | 70% | 1021.3 hPa | 0 mm | - | - | - |
| 1778198914 | 10° C | 70% | 1021.3 hPa | 0 mm | - | - | - |
| 1778198014 | 9.44° C | 70% | 1021.4 hPa | 0 mm | - | - | - |
| 1778197114 | 9.44° C | 70% | 1021.3 hPa | 0 mm | - | - | - |
| 1778196213 | 8.89° C | 71% | 1021.2 hPa | 0 mm | - | - | - |
| 1778195312 | 8.33° C | 71% | 1021.2 hPa | 0 mm | - | - | - |
| 1778194414 | 8.33° C | 71% | 1021.2 hPa | 0 mm | - | - | - |
| 1778193514 | 8.33° C | 72% | 1021.1 hPa | 0 mm | - | - | - |
| 1778192612 | 7.78° C | 73% | 1020.7 hPa | 0 mm | - | - | - |
| 1778191712 | 7.22° C | 81% | 1020.6 hPa | 0 mm | - | - | - |
| 1778190814 | 6.11° C | 82% | 1020.5 hPa | 0 mm | - | - | - |
| 1778189914 | 5.56° C | 83% | 1020.3 hPa | 0 mm | - | - | - |
| 1778189013 | 5° C | 82% | 1020.4 hPa | 0 mm | - | - | - |
| 1778188112 | 4.44° C | 81% | 1020.3 hPa | 0 mm | - | - | - |
| 1778187214 | 4.44° C | 81% | 1020.1 hPa | 0 mm | - | - | - |
* Rain latest hour (hover to see other rain measurements)
** Current wind speed in m/s (hover to see current wind gust speed)